Location: Unspecified
(0.0000°N, 0.0000°E)
Time: 18:03:15
(UTC+01:00)

IUS-9 SRM-1 - Visible Passes

Search period start: 11 February 2016 00:00
Search period end: 21 February 2016 00:00
Orbit: 262 x 20201 km, 26.5° (Epoch: 10 February)

Date Brightness Start Highest point End Pass type
(mag) Time Alt. Az. Time Alt. Az. Time Alt. Az.
11 Feb 7.9 03:51:04 55° NW 04:38:13 81° NE 08:22:10 10° SE visible
12 Feb 7.8 03:31:36 60° NNW 04:05:54 77° NE 07:59:18 10° ESE visible
13 Feb 7.9 03:12:02 63° NNW 03:35:27 73° NE 07:35:58 10° ESE visible
14 Feb 7.9 02:52:25 65° N 03:06:53 69° NE 07:12:07 10° ESE visible
15 Feb 7.9 02:32:44 64° NNE 02:39:51 65° NE 06:47:36 10° ESE visible
16 Feb 8.0 02:13:00 61° NE 02:13:58 61° NE 06:22:16 10° ESE visible
17 Feb 8.1 01:53:10 56° NE 01:53:10 56° NE 05:55:54 10° ESE visible
18 Feb 8.1 01:33:17 51° ENE 01:33:17 51° ENE 05:28:12 10° ESE visible
19 Feb 8.2 01:13:20 45° ENE 01:13:20 45° ENE 04:58:38 10° ESE visible
20 Feb 8.3 00:53:20 39° ENE 00:53:20 39° ENE 04:26:23 10° ESE visible
20 Feb 7.9 06:52:03 10° W 11:08:09 46° SSW 11:36:18 10° ESE visible
